Вернуться в каталог

STARLINK-30386

АктивенСвязьVLEO
NORAD 57816·PAYLOAD·🇺🇸 United States

Запущен Sep 9, 2023 с Cape Canaveral Space Force Station

Loading…

Ближайшие Пролёты (ближайшие 24 часа)

TLE

СвежийSource: CelesTrak SupGP

Эпоха: Sep 15, 2026, 01:59 UTC

1 57816C 23138J   26258.08312500 -.00015865  00000+0 -57465-3 0  2580
2 57816  43.0011 244.8400 0001513 262.9898 351.2130 15.27584959    15

Отслеживайте STARLINK-30386 в реальном времени с AllMySat

Download on the App Store